GIA423 WADD-WIII

Flight info

Callsign GIA423
Flight time 1h 31m
Altitude 40000
Route OKANG T4 FARIZ T6 KURUS
Aircraft A333/H-SDE2E3FGHIJ2J4M1RWXYZ/LB1D1

Departure

Time 2026-05-07 09:55
Airport Denpasar I Gusti Ngurah Rai International Airport (WADD)

Arrival

Time 2026-05-07 11:26
Airport Soekarno-Hatta International Airport (WIII)
Time Latitude Longitude Altitude Speed Heading
2026-05-07 09:37 -8.74543 115.16799 28 ft 0 kts 358°
2026-05-07 09:44 -8.74555 115.16799 28 ft 2 kts 358°
2026-05-07 09:44 -8.74571 115.16800 28 ft 2 kts 358°
2026-05-07 09:45 -8.74585 115.16800 28 ft 2 kts 358°
2026-05-07 09:45 -8.74600 115.16801 28 ft 2 kts 358°
2026-05-07 09:45 -8.74615 115.16801 27 ft 2 kts 358°
2026-05-07 09:45 -8.74630 115.16801 27 ft 2 kts 358°
2026-05-07 09:46 -8.74645 115.16802 27 ft 2 kts 358°
2026-05-07 09:46 -8.74660 115.16802 27 ft 2 kts 351°
2026-05-07 09:46 -8.74671 115.16809 26 ft 2 kts 289°
2026-05-07 09:46 -8.74672 115.16824 26 ft 2 kts 261°
2026-05-07 09:47 -8.74671 115.16839 26 ft 2 kts 268°
2026-05-07 09:47 -8.74670 115.16854 26 ft 2 kts 269°
2026-05-07 09:47 -8.74670 115.16862 26 ft 1 kts 268°
2026-05-07 09:49 -8.74671 115.16851 26 ft 4 kts 268°
2026-05-07 09:49 -8.74672 115.16807 26 ft 8 kts 268°
2026-05-07 09:50 -8.74675 115.16727 26 ft 13 kts 268°
2026-05-07 09:50 -8.74679 115.16615 26 ft 17 kts 268°
2026-05-07 09:50 -8.74686 115.16480 26 ft 20 kts 266°
2026-05-07 09:50 -8.74693 115.16336 26 ft 19 kts 268°
2026-05-07 09:51 -8.74698 115.16198 23 ft 19 kts 268°
2026-05-07 09:51 -8.74706 115.16084 22 ft 15 kts 264°
2026-05-07 09:51 -8.74713 115.15978 21 ft 14 kts 275°
2026-05-07 09:51 -8.74712 115.15881 19 ft 13 kts 269°
2026-05-07 09:52 -8.74716 115.15791 18 ft 12 kts 267°
2026-05-07 09:52 -8.74719 115.15706 17 ft 11 kts 268°
2026-05-07 09:52 -8.74721 115.15629 17 ft 10 kts 268°
2026-05-07 09:52 -8.74725 115.15556 17 ft 10 kts 265°
2026-05-07 09:53 -8.74732 115.15486 17 ft 9 kts 263°
2026-05-07 09:53 -8.74751 115.15413 17 ft 12 kts 233°
2026-05-07 09:53 -8.74849 115.15390 17 ft 14 kts 176°
2026-05-07 09:53 -8.74885 115.15412 17 ft 6 kts 113°
2026-05-07 09:54 -8.74890 115.15472 18 ft 6 kts 88°
2026-05-07 09:54 -8.74889 115.15481 18 ft 7 kts 88°
2026-05-07 09:54 -8.74884 115.15742 19 ft 70 kts 84°
2026-05-07 09:54 -8.74849 115.16502 24 ft 143 kts 88°
2026-05-07 09:55 -8.74818 115.17579 597 ft 155 kts 92°
2026-05-07 09:55 -8.74761 115.18616 1414 ft 153 kts 90°
2026-05-07 09:55 -8.74645 115.19679 2183 ft 159 kts 79°
2026-05-07 09:55 -8.74270 115.20688 3034 ft 170 kts 52°
2026-05-07 09:56 -8.73191 115.21339 3967 ft 203 kts 21°
2026-05-07 09:56 -8.71759 115.21389 5076 ft 214 kts 346°
2026-05-07 09:56 -8.70443 115.20722 5834 ft 219 kts 327°
2026-05-07 09:56 -8.69232 115.19780 6340 ft 235 kts 322°
2026-05-07 09:57 -8.67988 115.18684 6863 ft 251 kts 319°
2026-05-07 09:57 -8.67963 115.18661 6874 ft 251 kts 319°
2026-05-07 09:57 -8.66629 115.17424 7405 ft 269 kts 318°
2026-05-07 09:57 -8.65236 115.16112 7918 ft 285 kts 318°
2026-05-07 09:58 -8.63773 115.14726 8604 ft 294 kts 318°
2026-05-07 09:58 -8.62293 115.13321 9421 ft 297 kts 318°
2026-05-07 09:58 -8.60801 115.11906 10212 ft 299 kts 317°
2026-05-07 09:58 -8.59255 115.10442 10708 ft 313 kts 317°
2026-05-07 09:59 -8.57620 115.08892 11058 ft 331 kts 317°
2026-05-07 09:59 -8.55898 115.07259 11348 ft 349 kts 317°
2026-05-07 09:59 -8.54080 115.05536 11536 ft 367 kts 317°
2026-05-07 09:59 -8.52184 115.03738 11926 ft 378 kts 317°
2026-05-07 10:00 -8.50264 115.01920 12607 ft 380 kts 317°
2026-05-07 10:00 -8.48325 115.00083 13207 ft 384 kts 317°
2026-05-07 10:00 -8.46304 114.98314 13709 ft 387 kts 325°
2026-05-07 10:00 -8.43993 114.96894 14232 ft 390 kts 328°
2026-05-07 10:01 -8.41658 114.95461 14783 ft 392 kts 328°
2026-05-07 10:01 -8.39313 114.94021 15276 ft 395 kts 328°
2026-05-07 10:01 -8.36952 114.92572 15796 ft 398 kts 328°
2026-05-07 10:01 -8.34583 114.91127 16268 ft 400 kts 329°
2026-05-07 10:02 -8.32176 114.89704 16728 ft 403 kts 329°
2026-05-07 10:02 -8.29747 114.88265 17171 ft 406 kts 329°
2026-05-07 10:02 -8.27305 114.86816 17582 ft 409 kts 329°
2026-05-07 10:02 -8.24839 114.85353 17996 ft 412 kts 329°
2026-05-07 10:03 -8.22354 114.83879 18377 ft 415 kts 329°
2026-05-07 10:03 -8.19853 114.82396 18775 ft 418 kts 329°
2026-05-07 10:03 -8.17330 114.80900 19171 ft 421 kts 328°
2026-05-07 10:03 -8.14797 114.79397 19583 ft 423 kts 329°
2026-05-07 10:04 -8.12236 114.77879 19975 ft 425 kts 329°
2026-05-07 10:04 -8.09669 114.76357 20326 ft 428 kts 329°
2026-05-07 10:04 -8.07090 114.74830 20703 ft 430 kts 328°
2026-05-07 10:04 -8.04491 114.73288 21068 ft 431 kts 329°
2026-05-07 10:05 -8.01884 114.71744 21376 ft 435 kts 328°
2026-05-07 10:05 -7.99254 114.70185 21706 ft 437 kts 328°
2026-05-07 10:05 -7.96611 114.68620 22082 ft 438 kts 328°
2026-05-07 10:05 -7.93959 114.67048 22374 ft 441 kts 328°
2026-05-07 10:06 -7.91508 114.65159 22623 ft 442 kts 314°
2026-05-07 10:06 -7.89707 114.62640 22895 ft 444 kts 297°
2026-05-07 10:06 -7.88685 114.59696 23199 ft 444 kts 282°
2026-05-07 10:06 -7.87959 114.56657 23501 ft 446 kts 283°
2026-05-07 10:07 -7.87183 114.53613 23734 ft 450 kts 284°
2026-05-07 10:07 -7.86383 114.50545 24033 ft 452 kts 284°
2026-05-07 10:07 -7.85577 114.47472 24326 ft 454 kts 284°
2026-05-07 10:07 -7.84762 114.44376 24616 ft 455 kts 284°
2026-05-07 10:08 -7.83944 114.41273 24910 ft 457 kts 284°
2026-05-07 10:08 -7.83125 114.38168 25190 ft 459 kts 284°
2026-05-07 10:08 -7.82301 114.35044 25457 ft 461 kts 284°
2026-05-07 10:08 -7.81481 114.31936 25709 ft 463 kts 284°
2026-05-07 10:09 -7.80652 114.28795 25964 ft 465 kts 284°
2026-05-07 10:09 -7.79818 114.25633 26235 ft 467 kts 284°
2026-05-07 10:09 -7.78984 114.22481 26481 ft 469 kts 284°
2026-05-07 10:09 -7.78143 114.19296 26712 ft 471 kts 284°
2026-05-07 10:10 -7.77297 114.16097 26980 ft 473 kts 284°
2026-05-07 10:10 -7.76452 114.12898 27221 ft 475 kts 284°
2026-05-07 10:10 -7.75584 114.09703 27448 ft 476 kts 286°
2026-05-07 10:10 -7.74165 114.06682 27618 ft 481 kts 301°
2026-05-07 10:11 -7.72303 114.03864 27882 ft 483 kts 302°
2026-05-07 10:11 -7.70458 114.01046 28103 ft 485 kts 302°
2026-05-07 10:11 -7.68605 113.98204 28336 ft 486 kts 302°
2026-05-07 10:11 -7.66745 113.95350 28542 ft 488 kts 302°
2026-05-07 10:12 -7.64875 113.92479 28763 ft 490 kts 302°
2026-05-07 10:12 -7.63031 113.89648 29005 ft 490 kts 302°
2026-05-07 10:12 -7.61174 113.86797 29349 ft 489 kts 302°
2026-05-07 10:12 -7.59347 113.83990 29717 ft 487 kts 302°
2026-05-07 10:13 -7.57488 113.81140 30127 ft 484 kts 302°
2026-05-07 10:13 -7.55645 113.78314 30538 ft 482 kts 302°
2026-05-07 10:13 -7.53810 113.75497 30940 ft 480 kts 302°
2026-05-07 10:13 -7.52000 113.72723 31366 ft 477 kts 302°
2026-05-07 10:14 -7.50179 113.69929 31719 ft 476 kts 303°
2026-05-07 10:14 -7.48372 113.67159 32078 ft 475 kts 303°
2026-05-07 10:14 -7.46561 113.64382 32502 ft 472 kts 303°
2026-05-07 10:14 -7.44768 113.61637 32968 ft 470 kts 303°
2026-05-07 10:15 -7.43002 113.58932 33320 ft 470 kts 303°
2026-05-07 10:15 -7.41197 113.56167 33729 ft 469 kts 302°
2026-05-07 10:15 -7.39417 113.53441 34089 ft 469 kts 302°
2026-05-07 10:15 -7.37646 113.50729 34485 ft 468 kts 302°
2026-05-07 10:16 -7.35896 113.48049 34883 ft 467 kts 302°
2026-05-07 10:16 -7.34149 113.45375 35279 ft 467 kts 302°
2026-05-07 10:16 -7.32378 113.42665 35615 ft 467 kts 302°
2026-05-07 10:16 -7.30630 113.39989 35976 ft 467 kts 302°
2026-05-07 10:17 -7.28892 113.37329 36340 ft 467 kts 302°
2026-05-07 10:17 -7.27173 113.34699 36629 ft 468 kts 302°
2026-05-07 10:17 -7.25412 113.32005 36949 ft 468 kts 302°
2026-05-07 10:17 -7.23666 113.29337 37282 ft 467 kts 302°
2026-05-07 10:18 -7.21911 113.26651 37615 ft 467 kts 302°
2026-05-07 10:18 -7.20169 113.23990 37945 ft 467 kts 302°
2026-05-07 10:18 -7.18420 113.21314 38222 ft 467 kts 302°
2026-05-07 10:18 -7.16653 113.18616 38522 ft 467 kts 302°
2026-05-07 10:19 -7.14930 113.15983 38866 ft 466 kts 302°
2026-05-07 10:19 -7.13196 113.13333 39213 ft 465 kts 302°
2026-05-07 10:19 -7.11438 113.10648 39578 ft 463 kts 302°
2026-05-07 10:19 -7.09687 113.07972 39861 ft 463 kts 302°
2026-05-07 10:20 -7.07946 113.05314 39818 ft 468 kts 302°
2026-05-07 10:20 -7.04413 112.99917 39837 ft 475 kts 302°
2026-05-07 10:21 -7.00859 112.94495 39837 ft 479 kts 302°
2026-05-07 10:21 -6.97234 112.88966 39834 ft 482 kts 302°
2026-05-07 10:22 -6.93637 112.83480 39838 ft 485 kts 302°
2026-05-07 10:22 -6.89971 112.77890 39841 ft 486 kts 302°
2026-05-07 10:23 -6.86339 112.72355 39825 ft 488 kts 302°
2026-05-07 10:23 -6.82767 112.66912 39830 ft 488 kts 302°
2026-05-07 10:24 -6.79155 112.61410 39819 ft 488 kts 302°
2026-05-07 10:24 -6.75433 112.55743 39827 ft 489 kts 302°
2026-05-07 10:25 -6.71723 112.50095 39823 ft 489 kts 302°
2026-05-07 10:25 -6.67996 112.44424 39818 ft 489 kts 302°
2026-05-07 10:26 -6.64287 112.38780 39824 ft 489 kts 302°
2026-05-07 10:26 -6.60619 112.33204 39822 ft 490 kts 302°
2026-05-07 10:27 -6.56864 112.27496 39814 ft 490 kts 302°
2026-05-07 10:27 -6.53131 112.21821 39828 ft 491 kts 302°
2026-05-07 10:28 -6.49412 112.16173 39822 ft 491 kts 302°
2026-05-07 10:28 -6.45681 112.10506 39817 ft 488 kts 302°
2026-05-07 10:29 -6.41961 112.04858 39820 ft 489 kts 302°
2026-05-07 10:29 -6.38225 111.99188 39815 ft 490 kts 302°
2026-05-07 10:30 -6.32624 111.90688 39817 ft 490 kts 302°
2026-05-07 10:30 -6.28887 111.85023 39824 ft 490 kts 302°
2026-05-07 10:31 -6.25172 111.79391 39837 ft 490 kts 302°
2026-05-07 10:31 -6.21456 111.73759 39829 ft 488 kts 302°
2026-05-07 10:32 -6.17741 111.68132 39821 ft 488 kts 302°
2026-05-07 10:32 -6.14026 111.62503 39822 ft 489 kts 302°
2026-05-07 10:33 -6.10289 111.56847 39815 ft 490 kts 302°
2026-05-07 10:33 -6.06572 111.51220 39823 ft 489 kts 302°
2026-05-07 10:34 -6.02824 111.45551 39819 ft 488 kts 302°
2026-05-07 10:34 -5.99094 111.39907 39833 ft 488 kts 302°
2026-05-07 10:35 -5.95382 111.34295 39820 ft 487 kts 302°
2026-05-07 10:35 -5.91659 111.28666 39818 ft 488 kts 302°
2026-05-07 10:36 -5.88199 111.22872 39801 ft 485 kts 289°
2026-05-07 10:36 -5.87454 111.19632 39855 ft 482 kts 274°
2026-05-07 10:36 -5.87599 111.16307 39839 ft 481 kts 259°
2026-05-07 10:37 -5.88098 111.09713 39809 ft 483 kts 279°
2026-05-07 10:37 -5.87126 111.06536 39840 ft 483 kts 294°
2026-05-07 10:37 -5.85327 111.03704 39812 ft 484 kts 310°
2026-05-07 10:38 -5.82847 111.01467 39830 ft 485 kts 325°
2026-05-07 10:38 -5.79906 110.99842 39851 ft 486 kts 333°
2026-05-07 10:38 -5.73854 110.96848 39828 ft 489 kts 333°
2026-05-07 10:39 -5.68190 110.93256 39824 ft 486 kts 313°
2026-05-07 10:39 -5.66173 110.90576 39859 ft 484 kts 300°
2026-05-07 10:39 -5.64462 110.87704 39819 ft 486 kts 301°
2026-05-07 10:40 -5.61409 110.81764 39816 ft 484 kts 283°
2026-05-07 10:40 -5.61038 110.78489 39869 ft 482 kts 268°
2026-05-07 10:40 -5.61546 110.75189 39829 ft 481 kts 254°
2026-05-07 10:41 -5.62656 110.72062 39821 ft 481 kts 243°
2026-05-07 10:41 -5.64519 110.69338 39851 ft 480 kts 227°
2026-05-07 10:41 -5.69262 110.64751 39813 ft 482 kts 224°
2026-05-07 10:42 -5.74054 110.60118 39820 ft 483 kts 224°
2026-05-07 10:42 -5.78852 110.55468 39828 ft 484 kts 224°
2026-05-07 10:43 -5.83669 110.50796 39836 ft 485 kts 224°
2026-05-07 10:43 -5.88415 110.46194 39827 ft 484 kts 224°
2026-05-07 10:44 -5.93209 110.41529 39817 ft 481 kts 225°
2026-05-07 10:44 -5.94906 110.39448 39792 ft 481 kts 237°
2026-05-07 10:44 -5.96318 110.36454 39844 ft 480 kts 252°
2026-05-07 10:45 -5.96895 110.33315 39809 ft 480 kts 268°
2026-05-07 10:45 -5.96702 110.29955 39855 ft 480 kts 275°
2026-05-07 10:45 -5.96530 110.25239 39810 ft 482 kts 270°
2026-05-07 10:46 -5.96509 110.20621 39828 ft 484 kts 270°
2026-05-07 10:46 -5.96502 110.14944 39827 ft 485 kts 270°
2026-05-07 10:47 -5.96501 110.08144 39825 ft 485 kts 269°
2026-05-07 10:47 -5.96499 110.01348 39823 ft 486 kts 270°
2026-05-07 10:48 -5.96496 109.94526 39821 ft 487 kts 270°
2026-05-07 10:48 -5.96492 109.87923 39818 ft 487 kts 270°
2026-05-07 10:49 -5.96487 109.81157 39821 ft 487 kts 270°
2026-05-07 10:49 -5.96481 109.74382 39821 ft 486 kts 270°
2026-05-07 10:50 -5.96474 109.67780 39818 ft 484 kts 270°
2026-05-07 10:50 -5.96467 109.61060 39821 ft 484 kts 270°
2026-05-07 10:51 -5.96461 109.54420 39835 ft 483 kts 270°
2026-05-07 10:51 -5.96451 109.47774 39824 ft 485 kts 270°
2026-05-07 10:52 -5.96442 109.40916 39822 ft 487 kts 270°
2026-05-07 10:52 -5.96431 109.34314 39819 ft 488 kts 270°
2026-05-07 10:53 -5.96419 109.27609 39816 ft 486 kts 270°
2026-05-07 10:53 -5.96408 109.20833 39819 ft 484 kts 270°
2026-05-07 10:54 -5.96394 109.14053 39818 ft 485 kts 270°
2026-05-07 10:54 -5.96380 109.07255 39820 ft 486 kts 270°
2026-05-07 10:55 -5.96365 109.00431 39821 ft 487 kts 270°
2026-05-07 10:55 -5.96350 108.93592 39821 ft 488 kts 270°
2026-05-07 10:56 -5.96334 108.86767 39822 ft 487 kts 270°
2026-05-07 10:56 -5.96316 108.79951 39823 ft 486 kts 270°
2026-05-07 10:57 -5.96299 108.73159 39823 ft 485 kts 270°
2026-05-07 10:57 -5.96280 108.66346 39824 ft 486 kts 270°
2026-05-07 10:58 -5.96261 108.59514 39827 ft 487 kts 270°
2026-05-07 10:58 -5.96239 108.52682 39824 ft 488 kts 270°
2026-05-07 10:59 -5.96221 108.45890 39573 ft 478 kts 270°
2026-05-07 10:59 -5.96220 108.42606 39080 ft 462 kts 270°
2026-05-07 10:59 -5.96217 108.39406 38856 ft 452 kts 270°
2026-05-07 11:00 -5.96215 108.36261 38518 ft 446 kts 270°
2026-05-07 11:00 -5.96212 108.33167 38186 ft 440 kts 270°
2026-05-07 11:00 -5.96210 108.30119 37471 ft 443 kts 270°
2026-05-07 11:00 -5.96207 108.27019 36831 ft 444 kts 270°
2026-05-07 11:01 -5.96203 108.23907 36188 ft 445 kts 270°
2026-05-07 11:01 -5.96200 108.20798 35552 ft 446 kts 270°
2026-05-07 11:01 -5.96195 108.17673 34933 ft 446 kts 270°
2026-05-07 11:01 -5.96192 108.14553 34336 ft 446 kts 270°
2026-05-07 11:02 -5.96188 108.11433 33739 ft 446 kts 270°
2026-05-07 11:02 -5.96184 108.08295 33118 ft 446 kts 270°
2026-05-07 11:02 -5.96180 108.05154 32436 ft 451 kts 271°
2026-05-07 11:02 -5.96173 108.01964 31723 ft 458 kts 270°
2026-05-07 11:03 -5.96168 107.98736 31004 ft 462 kts 270°
2026-05-07 11:03 -5.96168 107.95473 30369 ft 474 kts 270°
2026-05-07 11:03 -5.96168 107.92127 29777 ft 479 kts 270°
2026-05-07 11:03 -5.96169 107.88780 29174 ft 475 kts 269°
2026-05-07 11:04 -5.96170 107.85472 28551 ft 470 kts 269°
2026-05-07 11:04 -5.96170 107.82190 27934 ft 466 kts 269°
2026-05-07 11:04 -5.96171 107.78950 27310 ft 461 kts 269°
2026-05-07 11:04 -5.96173 107.75743 26722 ft 456 kts 270°
2026-05-07 11:05 -5.96172 107.72557 26153 ft 452 kts 270°
2026-05-07 11:05 -5.96171 107.69396 25576 ft 448 kts 270°
2026-05-07 11:05 -5.96171 107.66274 25170 ft 440 kts 270°
2026-05-07 11:05 -5.96170 107.63239 24913 ft 430 kts 270°
2026-05-07 11:06 -5.96171 107.60229 24315 ft 428 kts 271°
2026-05-07 11:06 -5.96172 107.57245 23773 ft 425 kts 271°
2026-05-07 11:06 -5.96172 107.54275 23208 ft 422 kts 271°
2026-05-07 11:06 -5.96172 107.51329 22628 ft 420 kts 271°
2026-05-07 11:07 -5.96173 107.48402 22045 ft 417 kts 271°
2026-05-07 11:07 -5.96171 107.46661 21706 ft 415 kts 271°
2026-05-07 11:07 -5.96171 107.44570 21295 ft 413 kts 271°
2026-05-07 11:07 -5.96170 107.41690 20738 ft 409 kts 271°
2026-05-07 11:08 -5.96169 107.38835 20191 ft 405 kts 271°
2026-05-07 11:08 -5.96169 107.36013 19658 ft 401 kts 271°
2026-05-07 11:08 -5.96168 107.33233 19275 ft 392 kts 271°
2026-05-07 11:08 -5.96167 107.30547 19084 ft 379 kts 271°
2026-05-07 11:09 -5.96162 107.27890 18544 ft 378 kts 270°
2026-05-07 11:09 -5.96158 107.25260 18069 ft 374 kts 270°
2026-05-07 11:09 -5.96154 107.22646 17586 ft 372 kts 270°
2026-05-07 11:09 -5.96150 107.20065 17109 ft 369 kts 270°
2026-05-07 11:10 -5.96146 107.17469 16632 ft 367 kts 270°
2026-05-07 11:10 -5.96142 107.14909 16148 ft 364 kts 270°
2026-05-07 11:10 -5.96138 107.12366 15659 ft 362 kts 270°
2026-05-07 11:10 -5.96132 107.09833 15166 ft 360 kts 270°
2026-05-07 11:11 -5.96128 107.07326 14665 ft 358 kts 270°
2026-05-07 11:11 -5.96123 107.04819 14165 ft 357 kts 270°
2026-05-07 11:11 -5.96118 107.02329 13662 ft 355 kts 270°
2026-05-07 11:11 -5.96112 106.99844 13173 ft 353 kts 270°
2026-05-07 11:12 -5.96106 106.97520 12696 ft 351 kts 270°
2026-05-07 11:12 -5.96103 106.96546 12483 ft 350 kts 270°
2026-05-07 11:12 -5.96097 106.94101 12024 ft 347 kts 270°
2026-05-07 11:12 -5.96091 106.91670 11581 ft 345 kts 270°
2026-05-07 11:13 -5.96085 106.89257 11115 ft 343 kts 270°
2026-05-07 11:13 -5.96078 106.86861 10634 ft 341 kts 270°
2026-05-07 11:13 -5.96072 106.84469 10218 ft 337 kts 270°
2026-05-07 11:13 -5.96066 106.82170 10160 ft 320 kts 270°
2026-05-07 11:14 -5.96061 106.79995 9972 ft 302 kts 270°
2026-05-07 11:14 -5.96227 106.78534 9998 ft 299 kts 255°
2026-05-07 11:14 -5.96976 106.76540 9490 ft 309 kts 246°
2026-05-07 11:14 -5.97789 106.74560 8990 ft 303 kts 247°
2026-05-07 11:15 -5.98582 106.72608 8520 ft 298 kts 247°
2026-05-07 11:15 -5.99360 106.70689 8065 ft 293 kts 247°
2026-05-07 11:15 -6.00124 106.68800 7619 ft 288 kts 247°
2026-05-07 11:15 -6.00875 106.66945 7187 ft 284 kts 247°
2026-05-07 11:16 -6.01620 106.65106 6759 ft 280 kts 247°
2026-05-07 11:16 -6.02350 106.63300 6340 ft 277 kts 246°
2026-05-07 11:16 -6.03075 106.61510 6043 ft 275 kts 246°
2026-05-07 11:16 -6.03790 106.59741 5959 ft 263 kts 246°
2026-05-07 11:17 -6.04485 106.58027 5979 ft 267 kts 246°
2026-05-07 11:17 -6.05188 106.56286 5397 ft 268 kts 246°
2026-05-07 11:17 -6.05892 106.54543 5063 ft 269 kts 246°
2026-05-07 11:17 -6.06590 106.52814 4985 ft 259 kts 246°
2026-05-07 11:18 -6.07268 106.51135 4742 ft 260 kts 246°
2026-05-07 11:18 -6.07950 106.49449 4522 ft 257 kts 247°
2026-05-07 11:18 -6.08624 106.47776 4243 ft 259 kts 247°
2026-05-07 11:18 -6.09304 106.46091 4008 ft 258 kts 246°
2026-05-07 11:19 -6.09977 106.44436 3848 ft 254 kts 245°
2026-05-07 11:19 -6.11024 106.43044 3439 ft 245 kts 213°
2026-05-07 11:19 -6.12532 106.42420 3146 ft 228 kts 182°
2026-05-07 11:19 -6.14076 106.42543 2818 ft 217 kts 167°
2026-05-07 11:20 -6.15567 106.42781 2511 ft 213 kts 164°
2026-05-07 11:20 -6.16840 106.43455 2281 ft 205 kts 130°
2026-05-07 11:20 -6.17495 106.44650 2250 ft 180 kts 97°
2026-05-07 11:20 -6.17493 106.45828 2573 ft 160 kts 88°
2026-05-07 11:21 -6.17470 106.46910 2862 ft 151 kts 89°
2026-05-07 11:21 -6.17447 106.47943 2853 ft 142 kts 89°
2026-05-07 11:21 -6.17425 106.48940 2397 ft 145 kts 88°
2026-05-07 11:21 -6.17279 106.49964 1988 ft 151 kts 69°
2026-05-07 11:22 -6.16870 106.50890 2051 ft 139 kts 68°
2026-05-07 11:22 -6.16490 106.51786 1966 ft 137 kts 68°
2026-05-07 11:22 -6.16120 106.52657 1998 ft 135 kts 68°
2026-05-07 11:22 -6.15742 106.53532 1996 ft 135 kts 68°
2026-05-07 11:23 -6.15392 106.54408 1993 ft 136 kts 69°
2026-05-07 11:23 -6.15039 106.55294 1845 ft 138 kts 69°
2026-05-07 11:23 -6.14685 106.56182 1687 ft 137 kts 69°
2026-05-07 11:23 -6.14330 106.57070 1521 ft 136 kts 69°
2026-05-07 11:24 -6.13980 106.57949 1355 ft 135 kts 69°
2026-05-07 11:24 -6.13630 106.58828 1182 ft 135 kts 68°
2026-05-07 11:24 -6.13290 106.59680 1014 ft 135 kts 68°
2026-05-07 11:24 -6.12940 106.60560 840 ft 135 kts 68°
2026-05-07 11:25 -6.12590 106.61435 667 ft 135 kts 67°
2026-05-07 11:25 -6.12236 106.62307 494 ft 135 kts 67°
2026-05-07 11:25 -6.11890 106.63190 321 ft 136 kts 67°
2026-05-07 11:25 -6.11540 106.64073 159 ft 136 kts 67°
2026-05-07 11:26 -6.11190 106.64948 53 ft 128 kts 69°
2026-05-07 11:26 -6.10927 106.65610 53 ft 72 kts 68°
2026-05-07 11:26 -6.10799 106.65928 53 ft 44 kts 68°
2026-05-07 11:26 -6.10696 106.66186 52 ft 32 kts 69°
2026-05-07 11:27 -6.10633 106.66384 52 ft 18 kts 80°
2026-05-07 11:27 -6.10633 106.66508 52 ft 17 kts 96°
2026-05-07 11:27 -6.10649 106.66604 52 ft 12 kts 106°
2026-05-07 11:27 -6.10699 106.66656 52 ft 10 kts 152°
2026-05-07 11:28 -6.10762 106.66676 52 ft 8 kts 185°
2026-05-07 11:28 -6.10804 106.66643 52 ft 7 kts 243°
2026-05-07 11:28 -6.10832 106.66585 52 ft 10 kts 245°
2026-05-07 11:28 -6.10864 106.66506 52 ft 13 kts 248°
2026-05-07 11:29 -6.10903 106.66411 52 ft 15 kts 250°
2026-05-07 11:29 -6.10946 106.66301 52 ft 17 kts 248°
2026-05-07 11:29 -6.10994 106.66181 52 ft 18 kts 248°
2026-05-07 11:29 -6.11045 106.66059 52 ft 18 kts 247°
2026-05-07 11:30 -6.11060 106.66027 52 ft 0 kts 240°
2026-05-07 11:30 -6.11062 106.66023 52 ft 2 kts 240°
2026-05-07 11:30 -6.11074 106.66006 53 ft 3 kts 221°
2026-05-07 11:30 -6.11093 106.66004 52 ft 2 kts 168°
2026-05-07 11:31 -6.11115 106.66012 52 ft 4 kts 162°
2026-05-07 11:31 -6.11130 106.66017 52 ft 0 kts 164°
2026-05-07 11:36 -6.11146 106.66021 52 ft 4 kts 166°
2026-05-07 11:37 -6.11194 106.66035 52 ft 9 kts 159°
2026-05-07 11:37 -6.11241 106.66089 52 ft 12 kts 109°
2026-05-07 11:37 -6.11261 106.66189 52 ft 16 kts 100°
2026-05-07 11:37 -6.11317 106.66274 52 ft 14 kts 155°
2026-05-07 11:38 -6.11405 106.66308 52 ft 12 kts 162°
2026-05-07 11:38 -6.11482 106.66337 52 ft 11 kts 157°
2026-05-07 11:38 -6.11562 106.66371 52 ft 13 kts 156°
2026-05-07 11:38 -6.11637 106.66428 52 ft 13 kts 110°
2026-05-07 11:39 -6.11623 106.66520 52 ft 14 kts 70°
2026-05-07 11:39 -6.11585 106.66614 52 ft 14 kts 68°
2026-05-07 11:39 -6.11560 106.66694 52 ft 8 kts 102°
2026-05-07 11:39 -6.11597 106.66732 52 ft 7 kts 152°
2026-05-07 11:40 -6.11637 106.66750 52 ft 2 kts 158°
2026-05-07 11:40 -6.11648 106.66754 52 ft 0 kts 158°